sat.trackr.live / text

‹ back to catalog

STARLINK-3139

NORAD 49425 · 2021-104T

PAYLOAD ACTIVE UNKNOWN

§ Identity

Operator
Country
US
Launch date
2021-11-13
Launch site
AFETR
Launch vehicle
Mass (kg)
RCS (m²)

Purposes: comms

External: N2YO · Heavens-Above · Gunter

§ Orbital elements

Epoch: 2026-05-24T23:37:53.513760Z

Period
95.44 min
Inclination
53.2147°
Eccentricity
0.0001277
Mean motion
15.08834116 rev/d
Perigee alt
538.9 km
Apogee alt
540.6 km
Semi-major
6,917.9 km
B*
9.1313e-5
RAAN
246.6307°
Arg perigee
90.7686°
Mean anomaly
269.3453°
Rev number
25,015

§ Raw data

STARLINK-31391 49425U 21104T   26144.98464715  .00001165  00000+0  91313-4 0  99962 49425  53.2147 246.6307 0001277  90.7686 269.3453 15.08834116250151

JSON: /api/v1/satellites/49425 · /tle

For live sub-satellite position, see the globe view (requires WebGL).

§ Visibility from observer

Set your observer location to see the next 7 days of passes ≥ 10°. The values pass through the URL so the page stays shareable.

No JS? Fill the form by hand. The geolocation button needs JavaScript.